Time,TemperatureF,DewpointF,PressureIn,WindDirection,WindDirectionDegrees,WindSpeedMPH,WindSpeedGustMPH,Humidity,HourlyPrecipIn,Conditions,Clouds,dailyrainin,SoftwareType,DateUTC
2013-03-10 00:00:00,24.6,19.9,29.90,West,270,0.0,2.0,82,0.00,,,0.00,meteohub,2013-03-10 05:00:00,
2013-03-10 00:01:00,24.6,19.9,29.90,NW,315,2.0,2.0,82,0.00,,,0.00,meteohub,2013-03-10 05:01:00,
2013-03-10 00:04:00,25.0,19.9,29.90,NW,315,1.0,2.0,81,0.00,,,0.00,meteohub,2013-03-10 05:04:00,
2013-03-10 00:09:00,25.2,20.5,29.90,East,90,0.0,2.0,82,0.00,,,0.00,meteohub,2013-03-10 05:09:00,
2013-03-10 00:14:00,25.0,19.9,29.90,East,90,0.0,2.0,81,0.00,,,0.00,meteohub,2013-03-10 05:14:00,
2013-03-10 00:19:00,24.8,19.8,29.90,South,180,0.0,2.0,81,0.00,,,0.00,meteohub,2013-03-10 05:19:00,
2013-03-10 00:24:00,24.6,19.9,29.90,NW,315,1.0,1.0,82,0.00,,,0.00,meteohub,2013-03-10 05:24:00,
2013-03-10 00:29:00,24.6,19.9,29.91,SW,225,1.0,1.0,82,0.00,,,0.00,meteohub,2013-03-10 05:29:00,
2013-03-10 00:34:00,25.2,20.5,29.91,South,180,1.0,1.0,82,0.00,,,0.00,meteohub,2013-03-10 05:34:00,
2013-03-10 00:39:00,25.0,19.9,29.91,West,270,3.0,3.0,81,0.00,,,0.00,meteohub,2013-03-10 05:39:00,
2013-03-10 00:45:00,25.5,20.8,29.91,North,0,1.0,2.0,82,0.00,,,0.00,meteohub,2013-03-10 05:45:00,
2013-03-10 00:50:00,25.5,20.8,29.91,East,90,0.0,3.0,82,0.00,,,0.00,meteohub,2013-03-10 05:50:00,
2013-03-10 00:55:00,25.2,20.5,29.91,NW,315,1.0,3.0,82,0.00,,,0.00,meteohub,2013-03-10 05:55:00,
2013-03-10 01:00:00,24.6,20.1,29.91,NW,315,0.0,2.0,83,0.00,,,0.00,meteohub,2013-03-10 06:00:00,
2013-03-10 01:05:00,24.3,19.8,29.91,NW,315,1.0,1.0,83,0.00,,,0.00,meteohub,2013-03-10 06:05:00,
2013-03-10 01:10:00,24.3,19.8,29.91,South,180,0.0,2.0,83,0.00,,,0.00,meteohub,2013-03-10 06:10:00,
2013-03-10 01:15:00,24.1,19.8,29.91,South,180,0.0,2.0,83,0.00,,,0.00,meteohub,2013-03-10 06:15:00,
2013-03-10 01:20:00,24.1,19.4,29.91,SE,135,1.0,2.0,82,0.00,,,0.00,meteohub,2013-03-10 06:20:00,
2013-03-10 01:25:00,23.9,19.2,29.92,NW,315,1.0,1.0,82,0.00,,,0.00,meteohub,2013-03-10 06:25:00,
2013-03-10 01:30:00,23.9,19.2,29.91,South,180,0.0,1.0,82,0.00,,,0.00,meteohub,2013-03-10 06:30:00,
2013-03-10 01:35:00,23.7,19.0,29.92,NW,315,0.0,1.0,82,0.00,,,0.00,meteohub,2013-03-10 06:35:00,
2013-03-10 01:41:00,23.7,19.0,29.91,NE,45,0.0,1.0,82,0.00,,,0.00,meteohub,2013-03-10 06:41:00,
2013-03-10 01:46:00,23.7,19.0,29.91,SW,225,1.0,1.0,82,0.00,,,0.00,meteohub,2013-03-10 06:46:00,
2013-03-10 01:51:00,23.9,19.6,29.91,East,90,1.0,1.0,83,0.00,,,0.00,meteohub,2013-03-10 06:51:00,
2013-03-10 01:56:00,23.9,19.2,29.91,NW,315,1.0,1.0,82,0.00,,,0.00,meteohub,2013-03-10 06:56:00,
2013-03-10 03:01:00,23.5,18.9,29.91,South,180,1.0,-999.0,82,-99.99,,,0.00,meteohub,2013-03-10 07:01:00,
2013-03-10 03:06:00,23.9,19.2,29.92,South,180,0.0,-999.0,82,-99.99,,,0.00,meteohub,2013-03-10 07:06:00,
2013-03-10 03:11:00,23.7,19.0,29.91,South,180,0.0,-999.0,82,-99.99,,,0.00,meteohub,2013-03-10 07:11:00,
2013-03-10 03:16:00,23.5,18.9,29.91,South,180,0.0,-999.0,82,-99.99,,,0.00,meteohub,2013-03-10 07:16:00,
2013-03-10 03:21:00,23.4,18.7,29.91,NW,315,0.0,-999.0,82,-99.99,,,0.00,meteohub,2013-03-10 07:21:00,
2013-03-10 03:26:00,23.2,18.5,29.91,West,270,1.0,-999.0,82,-99.99,,,0.00,meteohub,2013-03-10 07:26:00,
2013-03-10 03:32:00,23.4,18.7,29.91,NW,315,1.0,-999.0,82,-99.99,,,0.00,meteohub,2013-03-10 07:32:00,
2013-03-10 03:37:00,23.7,19.0,29.91,NW,315,1.0,-999.0,82,-99.99,,,0.00,meteohub,2013-03-10 07:37:00,
2013-03-10 03:42:00,23.5,18.9,29.91,NW,315,1.0,-999.0,82,-99.99,,,0.00,meteohub,2013-03-10 07:42:00,
2013-03-10 03:47:00,23.5,18.9,29.91,NW,315,0.0,-999.0,82,-99.99,,,0.00,meteohub,2013-03-10 07:47:00,
2013-03-10 03:52:00,23.5,18.9,29.91,NE,45,1.0,-999.0,82,-99.99,,,0.00,meteohub,2013-03-10 07:52:00,
2013-03-10 03:57:00,23.7,19.0,29.91,NE,45,1.0,-999.0,82,-99.99,,,0.00,meteohub,2013-03-10 07:57:00,
2013-03-10 04:02:00,24.3,19.8,29.91,NE,45,1.0,-999.0,83,-99.99,,,0.00,meteohub,2013-03-10 08:02:00,
2013-03-10 04:07:00,23.9,19.6,29.91,NE,45,0.0,-999.0,83,-99.99,,,0.00,meteohub,2013-03-10 08:07:00,
2013-03-10 04:12:00,23.7,19.4,29.91,NE,45,0.0,-999.0,83,-99.99,,,0.00,meteohub,2013-03-10 08:12:00,
2013-03-10 04:17:00,23.5,18.9,29.91,NE,45,1.0,-999.0,82,-99.99,,,0.00,meteohub,2013-03-10 08:17:00,
2013-03-10 04:22:00,23.5,18.9,29.91,South,180,0.0,-999.0,82,-99.99,,,0.00,meteohub,2013-03-10 08:22:00,
2013-03-10 04:27:00,23.4,18.7,29.92,South,180,0.0,-999.0,82,-99.99,,,0.00,meteohub,2013-03-10 08:27:00,
2013-03-10 04:32:00,23.0,18.3,29.92,West,270,1.0,-999.0,82,-99.99,,,0.00,meteohub,2013-03-10 08:32:00,
2013-03-10 04:37:00,23.2,18.5,29.92,West,270,0.0,-999.0,82,-99.99,,,0.00,meteohub,2013-03-10 08:37:00,
2013-03-10 04:42:00,23.4,19.0,29.92,West,270,1.0,-999.0,83,-99.99,,,0.00,meteohub,2013-03-10 08:42:00,
2013-03-10 04:47:00,23.7,19.4,29.92,West,270,0.0,-999.0,83,-99.99,,,0.00,meteohub,2013-03-10 08:47:00,
2013-03-10 04:52:00,23.7,19.4,29.92,West,270,0.0,-999.0,83,-99.99,,,0.00,meteohub,2013-03-10 08:52:00,
2013-03-10 04:57:00,23.5,18.9,29.92,West,270,0.0,-999.0,82,-99.99,,,0.00,meteohub,2013-03-10 08:57:00,
2013-03-10 05:02:00,23.4,19.0,29.92,West,270,0.0,-999.0,83,-99.99,,,0.00,meteohub,2013-03-10 09:02:00,
2013-03-10 05:07:00,23.4,19.0,29.92,West,270,1.0,-999.0,83,-99.99,,,0.00,meteohub,2013-03-10 09:07:00,
2013-03-10 05:12:00,23.5,19.2,29.92,West,270,1.0,-999.0,83,-99.99,,,0.00,meteohub,2013-03-10 09:12:00,
2013-03-10 05:17:00,23.7,19.4,29.93,West,270,0.0,-999.0,83,-99.99,,,0.00,meteohub,2013-03-10 09:17:00,
2013-03-10 05:22:00,23.7,19.4,29.93,West,270,0.0,-999.0,83,-99.99,,,0.00,meteohub,2013-03-10 09:22:00,
2013-03-10 05:27:00,23.5,19.2,29.92,NE,45,1.0,-999.0,83,-99.99,,,0.00,meteohub,2013-03-10 09:27:00,
2013-03-10 05:32:00,23.4,19.0,29.92,NE,45,0.0,-999.0,83,-99.99,,,0.00,meteohub,2013-03-10 09:32:00,
2013-03-10 05:37:00,23.0,18.3,29.93,NW,315,1.0,-999.0,82,-99.99,,,0.00,meteohub,2013-03-10 09:37:00,
2013-03-10 05:42:00,23.2,18.9,29.93,West,270,1.0,-999.0,83,-99.99,,,0.00,meteohub,2013-03-10 09:42:00,
2013-03-10 05:47:00,23.4,19.0,29.93,South,180,1.0,-999.0,83,-99.99,,,0.00,meteohub,2013-03-10 09:47:00,
2013-03-10 05:52:00,23.4,19.0,29.93,SE,135,0.0,-999.0,83,-99.99,,,0.00,meteohub,2013-03-10 09:52:00,
2013-03-10 05:57:00,23.0,18.3,29.93,East,90,0.0,-999.0,82,-99.99,,,0.00,meteohub,2013-03-10 09:57:00,
2013-03-10 06:02:00,23.0,18.3,29.93,SE,135,0.0,-999.0,82,-99.99,,,0.00,meteohub,2013-03-10 10:02:00,
2013-03-10 06:07:00,22.5,18.1,29.93,West,270,1.0,-999.0,83,-99.99,,,0.00,meteohub,2013-03-10 10:07:00,
2013-03-10 06:12:00,22.3,18.0,29.93,SW,225,1.0,-999.0,83,-99.99,,,0.00,meteohub,2013-03-10 10:12:00,
2013-03-10 06:17:00,22.3,18.0,29.93,SW,225,0.0,-999.0,83,-99.99,,,0.00,meteohub,2013-03-10 10:17:00,
2013-03-10 06:22:00,22.5,18.1,29.93,SE,135,0.0,-999.0,83,-99.99,,,0.00,meteohub,2013-03-10 10:22:00,
2013-03-10 06:27:00,22.1,17.8,29.93,SE,135,0.0,-999.0,83,-99.99,,,0.00,meteohub,2013-03-10 10:27:00,
2013-03-10 06:32:00,21.6,17.2,29.93,SE,135,0.0,-999.0,83,-99.99,,,0.00,meteohub,2013-03-10 10:32:00,
2013-03-10 06:37:00,21.6,17.2,29.93,West,270,1.0,-999.0,83,-99.99,,,0.00,meteohub,2013-03-10 10:37:00,
2013-03-10 06:42:00,21.6,17.2,29.93,West,270,0.0,-999.0,83,-99.99,,,0.00,meteohub,2013-03-10 10:42:00,
2013-03-10 06:47:00,21.6,17.2,29.93,West,270,0.0,-999.0,83,-99.99,,,0.00,meteohub,2013-03-10 10:47:00,
2013-03-10 06:52:00,21.2,16.5,29.93,West,270,1.0,-999.0,82,-99.99,,,0.00,meteohub,2013-03-10 10:52:00,
2013-03-10 06:57:00,21.0,16.7,29.93,SW,225,0.0,-999.0,83,-99.99,,,0.00,meteohub,2013-03-10 10:57:00,
2013-03-10 07:02:00,21.0,16.7,29.93,North,0,0.0,-999.0,83,-99.99,,,0.00,meteohub,2013-03-10 11:02:00,
2013-03-10 07:07:00,21.0,16.7,29.93,NE,45,0.0,-999.0,83,-99.99,,,0.00,meteohub,2013-03-10 11:07:00,
2013-03-10 07:12:00,21.2,16.5,29.93,South,180,1.0,-999.0,82,-99.99,,,0.00,meteohub,2013-03-10 11:12:00,
2013-03-10 07:17:00,21.4,16.7,29.94,North,0,1.0,1.0,82,-99.99,,,0.00,meteohub,2013-03-10 11:17:00,
2013-03-10 07:22:00,21.2,16.5,29.94,West,270,2.0,2.0,82,-99.99,,,0.00,meteohub,2013-03-10 11:22:00,
2013-03-10 07:27:00,21.9,17.6,29.94,SW,225,0.0,2.0,83,-99.99,,,0.00,meteohub,2013-03-10 11:27:00,
2013-03-10 07:32:00,22.5,18.1,29.94,South,180,0.0,2.0,83,-99.99,,,0.00,meteohub,2013-03-10 11:32:00,
2013-03-10 07:37:00,22.5,18.1,29.94,South,180,0.0,2.0,83,-99.99,,,0.00,meteohub,2013-03-10 11:37:00,
2013-03-10 07:42:00,22.5,18.1,29.95,NW,315,1.0,1.0,83,-99.99,,,0.00,meteohub,2013-03-10 11:42:00,
2013-03-10 07:47:00,23.2,18.5,29.95,North,0,1.0,1.0,82,-99.99,,,0.00,meteohub,2013-03-10 11:47:00,
2013-03-10 07:52:00,23.7,19.4,29.95,NW,315,1.0,1.0,83,-99.99,,,0.00,meteohub,2013-03-10 11:52:00,
2013-03-10 07:58:00,24.6,20.1,29.95,NE,45,0.0,1.0,83,-99.99,,,0.00,meteohub,2013-03-10 11:58:00,
2013-03-10 08:03:00,25.9,21.2,29.95,NE,45,1.0,1.0,82,0.00,,,0.00,meteohub,2013-03-10 12:03:00,
2013-03-10 08:08:00,27.5,22.5,29.96,North,0,1.0,2.0,81,0.00,,,0.00,meteohub,2013-03-10 12:08:00,
2013-03-10 08:13:00,30.2,25.9,29.96,North,0,0.0,2.0,84,0.00,,,0.00,meteohub,2013-03-10 12:13:00,
2013-03-10 08:18:00,32.4,27.9,29.96,NE,45,0.0,2.0,83,0.00,,,0.00,meteohub,2013-03-10 12:18:00,
2013-03-10 08:23:00,33.6,28.9,29.96,NW,315,1.0,1.0,83,0.00,,,0.00,meteohub,2013-03-10 12:23:00,
2013-03-10 08:28:00,34.9,30.0,29.96,SE,135,0.0,1.0,82,0.00,,,0.00,meteohub,2013-03-10 12:28:00,
2013-03-10 08:33:00,35.6,30.0,29.95,South,180,1.0,1.0,80,0.00,,,0.00,meteohub,2013-03-10 12:33:00,
2013-03-10 08:38:00,36.3,30.2,29.96,SW,225,1.0,1.0,78,0.00,,,0.00,meteohub,2013-03-10 12:38:00,
2013-03-10 08:43:00,36.5,29.3,29.96,East,90,1.0,4.0,75,0.00,,,0.00,meteohub,2013-03-10 12:43:00,
2013-03-10 08:49:00,37.4,31.1,29.96,East,90,2.0,4.0,78,0.00,,,0.00,meteohub,2013-03-10 12:49:00,
2013-03-10 08:54:00,37.4,30.2,29.95,NE,45,2.0,4.0,75,0.00,,,0.00,meteohub,2013-03-10 12:54:00,
2013-03-10 08:59:00,37.0,27.1,29.96,North,0,5.0,5.0,67,0.00,,,0.00,meteohub,2013-03-10 12:59:00,
2013-03-10 09:04:00,36.5,26.2,29.96,NE,45,4.0,4.0,66,0.00,,,0.00,meteohub,2013-03-10 13:04:00,
2013-03-10 09:09:00,36.7,26.4,29.96,SE,135,3.0,5.0,66,0.00,,,0.00,meteohub,2013-03-10 13:09:00,
2013-03-10 09:14:00,36.9,26.2,29.96,East,90,4.0,6.0,65,0.00,,,0.00,meteohub,2013-03-10 13:14:00,
2013-03-10 09:19:00,36.7,26.1,29.96,North,0,4.0,6.0,65,0.00,,,0.00,meteohub,2013-03-10 13:19:00,
2013-03-10 09:24:00,37.2,27.0,29.96,South,180,2.0,7.0,66,0.00,,,0.00,meteohub,2013-03-10 13:24:00,
2013-03-10 09:29:00,37.9,28.8,29.96,NE,45,3.0,8.0,69,0.00,,,0.00,meteohub,2013-03-10 13:29:00,
2013-03-10 09:34:00,38.7,29.3,29.96,East,90,4.0,8.0,69,0.00,,,0.00,meteohub,2013-03-10 13:34:00,
2013-03-10 09:39:00,39.2,28.8,29.96,NE,45,4.0,8.0,66,0.00,,,0.00,meteohub,2013-03-10 13:39:00,
2013-03-10 09:45:00,38.7,28.9,29.96,ENE,68,4.0,7.0,68,0.00,,,0.00,meteohub,2013-03-10 13:45:00,
2013-03-10 09:50:00,39.4,28.9,29.96,NE,45,5.0,7.0,66,0.00,,,0.00,meteohub,2013-03-10 13:50:00,
2013-03-10 09:55:00,40.1,29.7,29.96,South,180,4.0,7.0,66,0.00,,,0.00,meteohub,2013-03-10 13:55:00,
2013-03-10 10:00:00,40.8,29.7,29.96,SE,135,2.0,6.0,64,0.00,,,0.00,meteohub,2013-03-10 14:00:00,
2013-03-10 10:05:00,40.6,29.5,29.96,East,90,7.0,7.0,64,0.00,,,0.00,meteohub,2013-03-10 14:05:00,
2013-03-10 10:10:00,40.3,29.1,29.96,NE,45,8.0,8.0,64,0.00,,,0.00,meteohub,2013-03-10 14:10:00,
2013-03-10 10:15:00,40.3,29.1,29.96,South,180,6.0,8.0,64,0.00,,,0.00,meteohub,2013-03-10 14:15:00,
2013-03-10 10:20:00,41.2,29.5,29.97,SSE,158,3.0,8.0,63,0.00,,,0.00,meteohub,2013-03-10 14:20:00,
2013-03-10 10:25:00,42.4,30.4,29.97,North,0,4.0,8.0,62,0.00,,,0.00,meteohub,2013-03-10 14:25:00,
2013-03-10 10:30:00,42.4,29.1,29.96,ENE,68,4.0,8.0,59,0.00,,,0.00,meteohub,2013-03-10 14:30:00,
2013-03-10 10:35:00,42.6,29.3,29.96,North,0,4.0,8.0,59,0.00,,,0.00,meteohub,2013-03-10 14:35:00,
2013-03-10 10:41:00,43.2,28.9,29.96,East,90,2.0,8.0,57,0.00,,,0.00,meteohub,2013-03-10 14:41:00,
2013-03-10 10:46:00,41.2,27.9,29.96,SSE,158,6.0,6.0,59,0.00,,,0.00,meteohub,2013-03-10 14:46:00,
2013-03-10 10:51:00,41.5,28.8,29.96,SE,135,3.0,6.0,60,0.00,,,0.00,meteohub,2013-03-10 14:51:00,
2013-03-10 10:56:00,43.0,29.3,29.96,SE,135,2.0,6.0,58,0.00,,,0.00,meteohub,2013-03-10 14:56:00,
2013-03-10 11:01:00,42.8,28.2,29.96,NE,45,5.0,6.0,56,0.00,,,0.00,meteohub,2013-03-10 15:01:00,
2013-03-10 11:06:00,43.7,29.1,29.96,SE,135,4.0,5.0,56,0.00,,,0.00,meteohub,2013-03-10 15:06:00,
2013-03-10 11:11:00,43.2,27.7,29.96,East,90,8.0,8.0,54,0.00,,,0.00,meteohub,2013-03-10 15:11:00,
2013-03-10 11:16:00,43.7,28.6,29.96,South,180,5.0,8.0,55,0.00,,,0.00,meteohub,2013-03-10 15:16:00,
2013-03-10 11:21:00,42.6,27.5,29.96,South,180,6.0,8.0,55,0.00,,,0.00,meteohub,2013-03-10 15:21:00,
2013-03-10 11:26:00,42.4,27.9,29.96,SE,135,4.0,8.0,56,0.00,,,0.00,meteohub,2013-03-10 15:26:00,
2013-03-10 11:31:00,42.3,27.3,29.96,SE,135,5.0,9.0,55,0.00,,,0.00,meteohub,2013-03-10 15:31:00,
2013-03-10 11:37:00,43.3,27.9,29.95,West,270,4.0,9.0,54,0.00,,,0.00,meteohub,2013-03-10 15:37:00,
2013-03-10 11:42:00,43.7,27.7,29.95,SE,135,6.0,9.0,53,0.00,,,0.00,meteohub,2013-03-10 15:42:00,
2013-03-10 11:47:00,43.7,27.7,29.95,SE,135,2.0,8.0,53,0.00,,,0.00,meteohub,2013-03-10 15:47:00,
2013-03-10 11:52:00,44.4,28.4,29.95,SE,135,4.0,8.0,53,0.00,,,0.00,meteohub,2013-03-10 15:52:00,
2013-03-10 11:57:00,44.1,28.0,29.95,East,90,2.0,6.0,53,0.00,,,0.00,meteohub,2013-03-10 15:57:00,
2013-03-10 12:02:00,44.6,27.5,29.94,East,90,4.0,6.0,51,0.00,,,0.00,meteohub,2013-03-10 16:02:00,
2013-03-10 12:07:00,44.8,27.7,29.95,SE,135,6.0,6.0,51,0.00,,,0.00,meteohub,2013-03-10 16:07:00,
2013-03-10 12:12:00,43.7,27.1,29.94,South,180,4.0,7.0,52,0.00,,,0.00,meteohub,2013-03-10 16:12:00,
2013-03-10 12:17:00,44.4,27.9,29.94,SE,135,5.0,7.0,52,0.00,,,0.00,meteohub,2013-03-10 16:17:00,
2013-03-10 12:22:00,43.9,27.3,29.94,NNE,23,5.0,8.0,52,0.00,,,0.00,meteohub,2013-03-10 16:22:00,
2013-03-10 12:27:00,44.4,27.9,29.94,East,90,3.0,8.0,52,0.00,,,0.00,meteohub,2013-03-10 16:27:00,
2013-03-10 12:32:00,44.2,27.7,29.94,SE,135,4.0,8.0,52,0.00,,,0.00,meteohub,2013-03-10 16:32:00,
2013-03-10 12:37:00,44.1,28.0,29.94,South,180,6.0,8.0,53,0.00,,,0.00,meteohub,2013-03-10 16:37:00,
2013-03-10 12:42:00,43.7,27.1,29.94,SSE,158,3.0,8.0,52,0.00,,,0.00,meteohub,2013-03-10 16:42:00,
2013-03-10 12:47:00,45.0,27.9,29.93,SE,135,5.0,8.0,51,0.00,,,0.00,meteohub,2013-03-10 16:47:00,
2013-03-10 12:52:00,44.2,27.7,29.94,SE,135,4.0,8.0,52,0.00,,,0.00,meteohub,2013-03-10 16:52:00,
2013-03-10 12:57:00,44.6,27.5,29.93,SE,135,2.0,8.0,51,0.00,,,0.00,meteohub,2013-03-10 16:57:00,
2013-03-10 13:02:00,45.1,28.0,29.93,South,180,5.0,8.0,51,0.00,,,0.00,meteohub,2013-03-10 17:02:00,
2013-03-10 13:08:00,44.6,27.1,29.94,SSW,203,4.0,8.0,50,0.00,,,0.00,meteohub,2013-03-10 17:08:00,
2013-03-10 13:13:00,45.0,27.9,29.94,South,180,4.0,9.0,51,0.00,,,0.00,meteohub,2013-03-10 17:13:00,
2013-03-10 13:18:00,46.4,29.3,29.94,SE,135,3.0,9.0,51,0.00,,,0.00,meteohub,2013-03-10 17:18:00,
2013-03-10 13:23:00,47.7,28.9,29.93,SE,135,4.0,9.0,48,0.00,,,0.00,meteohub,2013-03-10 17:23:00,
2013-03-10 13:28:00,48.2,28.9,29.94,SW,225,2.0,9.0,47,0.00,,,0.00,meteohub,2013-03-10 17:28:00,
2013-03-10 13:33:00,49.5,29.5,29.93,SW,225,2.0,7.0,46,0.00,,,0.00,meteohub,2013-03-10 17:33:00,
2013-03-10 13:38:00,47.8,28.0,29.93,East,90,6.0,7.0,46,0.00,,,0.00,meteohub,2013-03-10 17:38:00,
2013-03-10 13:43:00,47.8,28.6,29.92,SW,225,4.0,7.0,47,0.00,,,0.00,meteohub,2013-03-10 17:43:00,
2013-03-10 13:48:00,46.8,27.7,29.92,SE,135,2.0,7.0,47,0.00,,,0.00,meteohub,2013-03-10 17:48:00,
2013-03-10 13:53:00,49.3,29.3,29.91,NE,45,3.0,7.0,46,0.00,,,0.00,meteohub,2013-03-10 17:53:00,
2013-03-10 13:59:00,49.1,28.8,29.91,SE,135,4.0,5.0,45,0.00,,,0.00,meteohub,2013-03-10 17:59:00,
2013-03-10 14:04:00,49.1,29.1,29.91,South,180,6.0,6.0,46,0.00,,,0.00,meteohub,2013-03-10 18:04:00,
2013-03-10 14:09:00,48.0,28.2,29.91,East,90,3.0,6.0,46,0.00,,,0.00,meteohub,2013-03-10 18:09:00,
2013-03-10 14:14:00,48.7,28.4,29.91,East,90,3.0,6.0,45,0.00,,,0.00,meteohub,2013-03-10 18:14:00,
2013-03-10 14:19:00,48.6,28.2,29.91,NW,315,3.0,6.0,45,0.00,,,0.00,meteohub,2013-03-10 18:19:00,
2013-03-10 14:24:00,49.1,28.0,29.91,South,180,2.0,5.0,44,0.00,,,0.00,meteohub,2013-03-10 18:24:00,
2013-03-10 14:29:00,50.9,29.1,29.91,NE,45,4.0,5.0,43,0.00,,,0.00,meteohub,2013-03-10 18:29:00,
2013-03-10 14:34:00,50.5,28.2,29.91,SE,135,3.0,5.0,42,0.00,,,0.00,meteohub,2013-03-10 18:34:00,
2013-03-10 14:39:00,50.4,28.8,29.91,SE,135,4.0,5.0,43,0.00,,,0.00,meteohub,2013-03-10 18:39:00,
2013-03-10 14:44:00,49.1,27.5,29.90,SW,225,2.0,5.0,43,0.00,,,0.00,meteohub,2013-03-10 18:44:00,
2013-03-10 14:50:00,48.4,27.5,29.90,ESE,113,4.0,5.0,44,0.00,,,0.00,meteohub,2013-03-10 18:50:00,
2013-03-10 14:55:00,48.7,27.9,29.89,ESE,113,4.0,6.0,44,0.00,,,0.00,meteohub,2013-03-10 18:55:00,
2013-03-10 15:00:00,49.1,28.0,29.89,SE,135,3.0,7.0,44,0.00,,,0.00,meteohub,2013-03-10 19:00:00,
2013-03-10 15:05:00,48.9,28.0,29.89,SW,225,2.0,5.0,44,0.00,,,0.00,meteohub,2013-03-10 19:05:00,
2013-03-10 15:10:00,50.4,28.8,29.89,East,90,6.0,6.0,43,0.00,,,0.00,meteohub,2013-03-10 19:10:00,
2013-03-10 15:15:00,49.5,28.4,29.89,South,180,4.0,6.0,44,0.00,,,0.00,meteohub,2013-03-10 19:15:00,
2013-03-10 15:20:00,50.0,28.4,29.89,North,0,2.0,6.0,43,0.00,,,0.00,meteohub,2013-03-10 19:20:00,
2013-03-10 15:25:00,50.5,28.2,29.89,SE,135,2.0,6.0,42,0.00,,,0.00,meteohub,2013-03-10 19:25:00,
2013-03-10 15:30:00,51.3,27.7,29.89,South,180,3.0,5.0,40,0.00,,,0.00,meteohub,2013-03-10 19:30:00,
2013-03-10 15:35:00,50.5,27.1,29.88,SE,135,5.0,5.0,40,0.00,,,0.00,meteohub,2013-03-10 19:35:00,
2013-03-10 15:40:00,48.9,28.0,29.88,South,180,5.0,8.0,44,0.00,,,0.00,meteohub,2013-03-10 19:40:00,
2013-03-10 15:45:00,48.9,28.6,29.88,SSW,203,4.0,8.0,45,0.00,,,0.00,meteohub,2013-03-10 19:45:00,
2013-03-10 15:51:00,49.5,28.4,29.88,SE,135,4.0,8.0,44,0.00,,,0.00,meteohub,2013-03-10 19:51:00,
2013-03-10 15:56:00,50.2,29.1,29.88,West,270,2.0,7.0,44,0.00,,,0.00,meteohub,2013-03-10 19:56:00,
2013-03-10 16:01:00,51.1,29.3,29.88,East,90,3.0,7.0,43,0.00,,,0.00,meteohub,2013-03-10 20:01:00,
2013-03-10 16:06:00,50.2,28.6,29.88,South,180,4.0,5.0,43,0.00,,,0.00,meteohub,2013-03-10 20:06:00,
2013-03-10 16:11:00,50.0,28.4,29.88,South,180,6.0,6.0,43,0.00,,,0.00,meteohub,2013-03-10 20:11:00,
2013-03-10 16:16:00,49.6,28.6,29.88,SE,135,4.0,6.0,44,0.00,,,0.00,meteohub,2013-03-10 20:16:00,
2013-03-10 16:21:00,49.5,28.4,29.88,South,180,4.0,6.0,44,0.00,,,0.00,meteohub,2013-03-10 20:21:00,
2013-03-10 16:27:00,49.3,28.2,29.88,SE,135,3.0,6.0,44,0.00,,,0.00,meteohub,2013-03-10 20:27:00,
2013-03-10 16:32:00,50.0,28.4,29.88,South,180,2.0,6.0,43,0.00,,,0.00,meteohub,2013-03-10 20:32:00,
2013-03-10 16:37:00,49.6,28.6,29.88,East,90,7.0,7.0,44,0.00,,,0.00,meteohub,2013-03-10 20:37:00,
2013-03-10 16:42:00,49.6,29.1,29.88,South,180,1.0,7.0,45,0.00,,,0.00,meteohub,2013-03-10 20:42:00,
2013-03-10 16:47:00,49.8,28.8,29.88,South,180,4.0,7.0,44,0.00,,,0.00,meteohub,2013-03-10 20:47:00,
2013-03-10 16:53:00,48.9,28.0,29.87,SE,135,7.0,7.0,44,0.00,,,0.00,meteohub,2013-03-10 20:53:00,
2013-03-10 16:58:00,48.6,28.2,29.87,NE,45,5.0,7.0,45,0.00,,,0.00,meteohub,2013-03-10 20:58:00,
2013-03-10 17:03:00,48.9,28.6,29.87,NE,45,2.0,7.0,45,0.00,,,0.00,meteohub,2013-03-10 21:03:00,
2013-03-10 17:08:00,49.5,28.9,29.87,NE,45,2.0,7.0,45,0.00,,,0.00,meteohub,2013-03-10 21:08:00,
2013-03-10 17:13:00,50.0,28.4,29.87,SE,135,3.0,5.0,43,0.00,,,0.00,meteohub,2013-03-10 21:13:00,
2013-03-10 17:18:00,49.6,28.6,29.87,NE,45,2.0,5.0,44,0.00,,,0.00,meteohub,2013-03-10 21:18:00,
2013-03-10 17:23:00,50.0,28.4,29.87,East,90,2.0,4.0,43,0.00,,,0.00,meteohub,2013-03-10 21:23:00,
2013-03-10 17:28:00,50.0,28.4,29.87,East,90,2.0,4.0,43,0.00,,,0.00,meteohub,2013-03-10 21:28:00,
2013-03-10 17:33:00,49.1,28.0,29.87,SE,135,3.0,4.0,44,0.00,,,0.00,meteohub,2013-03-10 21:33:00,
2013-03-10 17:38:00,48.4,28.0,29.87,ENE,68,2.0,4.0,45,0.00,,,0.00,meteohub,2013-03-10 21:38:00,
2013-03-10 17:43:00,48.0,28.2,29.86,SE,135,3.0,4.0,46,0.00,,,0.00,meteohub,2013-03-10 21:43:00,
2013-03-10 17:48:00,48.2,27.9,29.86,NE,45,1.0,4.0,45,0.00,,,0.00,meteohub,2013-03-10 21:48:00,
2013-03-10 17:54:00,48.2,27.9,29.86,East,90,4.0,4.0,45,0.00,,,0.00,meteohub,2013-03-10 21:54:00,
2013-03-10 17:59:00,47.8,28.0,29.86,SE,135,2.0,4.0,46,0.00,,,0.00,meteohub,2013-03-10 21:59:00,
2013-03-10 18:04:00,47.8,28.0,29.86,NE,45,2.0,4.0,46,0.00,,,0.00,meteohub,2013-03-10 22:04:00,
2013-03-10 18:09:00,47.5,27.7,29.86,East,90,3.0,4.0,46,0.00,,,0.00,meteohub,2013-03-10 22:09:00,
2013-03-10 18:14:00,46.4,27.3,29.86,SE,135,3.0,4.0,47,0.00,,,0.00,meteohub,2013-03-10 22:14:00,
2013-03-10 18:19:00,45.3,26.8,29.86,NE,45,4.0,5.0,48,0.00,,,0.00,meteohub,2013-03-10 22:19:00,
2013-03-10 18:24:00,44.6,27.1,29.87,SE,135,2.0,5.0,50,0.00,,,0.00,meteohub,2013-03-10 22:24:00,
2013-03-10 18:29:00,43.5,27.5,29.87,SE,135,3.0,5.0,53,0.00,,,0.00,meteohub,2013-03-10 22:29:00,
2013-03-10 18:34:00,42.8,27.3,29.87,NE,45,2.0,4.0,54,0.00,,,0.00,meteohub,2013-03-10 22:34:00,
2013-03-10 18:39:00,42.1,27.9,29.86,ESE,113,1.0,4.0,57,0.00,,,0.00,meteohub,2013-03-10 22:39:00,
2013-03-10 18:44:00,41.5,27.9,29.86,East,90,4.0,4.0,58,0.00,,,0.00,meteohub,2013-03-10 22:44:00,
2013-03-10 18:49:00,41.2,28.4,29.86,SE,135,3.0,4.0,60,0.00,,,0.00,meteohub,2013-03-10 22:49:00,
2013-03-10 18:54:00,40.6,29.1,29.86,SE,135,3.0,4.0,63,0.00,,,0.00,meteohub,2013-03-10 22:54:00,
2013-03-10 18:59:00,40.3,28.8,29.87,SE,135,1.0,4.0,63,0.00,,,0.00,meteohub,2013-03-10 22:59:00,
2013-03-10 19:05:00,39.9,28.4,29.87,East,90,2.0,4.0,63,0.00,,,0.00,meteohub,2013-03-10 23:05:00,
2013-03-10 19:10:00,39.6,28.4,29.87,NE,45,1.0,4.0,64,0.00,,,0.00,meteohub,2013-03-10 23:10:00,
2013-03-10 19:15:00,39.2,28.0,29.87,SE,135,2.0,3.0,64,0.00,,,0.00,meteohub,2013-03-10 23:15:00,
2013-03-10 19:20:00,39.4,28.2,29.88,East,90,1.0,2.0,64,0.00,,,0.00,meteohub,2013-03-10 23:20:00,
2013-03-10 19:25:00,39.4,28.6,29.87,East,90,4.0,4.0,65,0.00,,,0.00,meteohub,2013-03-10 23:25:00,
2013-03-10 19:30:00,39.6,28.8,29.87,SE,135,5.0,5.0,65,0.00,,,0.00,meteohub,2013-03-10 23:30:00,
2013-03-10 19:35:00,39.6,28.8,29.86,East,90,6.0,6.0,65,0.00,,,0.00,meteohub,2013-03-10 23:35:00,
2013-03-10 19:40:00,39.6,28.8,29.87,East,90,4.0,6.0,65,0.00,,,0.00,meteohub,2013-03-10 23:40:00,
2013-03-10 19:45:00,39.4,28.6,29.87,East,90,4.0,6.0,65,0.00,,,0.00,meteohub,2013-03-10 23:45:00,
2013-03-10 19:50:00,39.2,28.8,29.88,South,180,4.0,6.0,66,0.00,,,0.00,meteohub,2013-03-10 23:50:00,
2013-03-10 19:56:00,39.2,28.8,29.88,SE,135,3.0,4.0,66,0.00,,,0.00,meteohub,2013-03-10 23:56:00,
2013-03-10 20:01:00,39.0,28.9,29.88,East,90,2.0,4.0,67,0.00,,,0.00,meteohub,2013-03-11 00:01:00,
2013-03-10 20:06:00,38.8,28.8,29.88,SE,135,2.0,4.0,67,0.00,,,0.00,meteohub,2013-03-11 00:06:00,
2013-03-10 20:11:00,38.8,28.8,29.88,South,180,3.0,4.0,67,0.00,,,0.00,meteohub,2013-03-11 00:11:00,
2013-03-10 20:16:00,38.7,28.6,29.89,East,90,2.0,4.0,67,0.00,,,0.00,meteohub,2013-03-11 00:16:00,
2013-03-10 20:21:00,38.3,28.2,29.88,NE,45,1.0,4.0,67,0.00,,,0.00,meteohub,2013-03-11 00:21:00,
2013-03-10 20:26:00,37.9,28.4,29.89,NE,45,1.0,4.0,68,0.00,,,0.00,meteohub,2013-03-11 00:26:00,
2013-03-10 20:31:00,37.8,28.2,29.88,NE,45,1.0,2.0,68,0.00,,,0.00,meteohub,2013-03-11 00:31:00,
2013-03-10 20:36:00,37.8,28.2,29.88,SE,135,0.0,2.0,68,0.00,,,0.00,meteohub,2013-03-11 00:36:00,
2013-03-10 20:41:00,37.6,28.0,29.88,North,0,2.0,2.0,68,0.00,,,0.00,meteohub,2013-03-11 00:41:00,
2013-03-10 20:47:00,37.2,26.2,29.88,SE,135,1.0,2.0,64,0.00,,,0.00,meteohub,2013-03-11 00:47:00,
2013-03-10 20:52:00,37.0,26.1,29.88,SE,135,2.0,2.0,64,0.00,,,0.00,meteohub,2013-03-11 00:52:00,
2013-03-10 20:57:00,37.2,26.6,29.87,South,180,2.0,2.0,65,0.00,,,0.00,meteohub,2013-03-11 00:57:00,
2013-03-10 21:02:00,37.0,26.8,29.88,East,90,2.0,3.0,66,0.00,,,0.00,meteohub,2013-03-11 01:02:00,
2013-03-10 21:07:00,37.0,26.8,29.87,South,180,2.0,3.0,66,0.00,,,0.00,meteohub,2013-03-11 01:07:00,
2013-03-10 21:12:00,37.0,27.1,29.87,SE,135,5.0,5.0,67,0.00,,,0.00,meteohub,2013-03-11 01:12:00,
2013-03-10 21:17:00,36.9,27.0,29.87,East,90,1.0,5.0,67,0.00,,,0.00,meteohub,2013-03-11 01:17:00,
2013-03-10 21:22:00,36.9,27.0,29.87,SE,135,2.0,5.0,67,0.00,,,0.00,meteohub,2013-03-11 01:22:00,
2013-03-10 21:28:00,36.9,27.0,29.87,East,90,2.0,5.0,67,0.00,,,0.00,meteohub,2013-03-11 01:28:00,
2013-03-10 21:33:00,36.9,27.0,29.87,SE,135,2.0,2.0,67,0.00,,,0.00,meteohub,2013-03-11 01:33:00,
2013-03-10 21:38:00,36.9,27.0,29.87,South,180,2.0,2.0,67,0.00,,,0.00,meteohub,2013-03-11 01:38:00,
2013-03-10 21:43:00,36.9,27.0,29.87,East,90,2.0,3.0,67,0.00,,,0.00,meteohub,2013-03-11 01:43:00,
2013-03-10 21:48:00,36.9,27.0,29.87,East,90,2.0,3.0,67,0.00,,,0.00,meteohub,2013-03-11 01:48:00,
2013-03-10 21:53:00,36.7,26.8,29.87,SE,135,2.0,3.0,67,0.00,,,0.00,meteohub,2013-03-11 01:53:00,
2013-03-10 21:58:00,36.7,26.8,29.87,SE,135,2.0,3.0,67,0.00,,,0.00,meteohub,2013-03-11 01:58:00,
2013-03-10 22:03:00,36.5,27.0,29.86,SE,135,2.0,2.0,68,0.00,,,0.00,meteohub,2013-03-11 02:03:00,
2013-03-10 22:08:00,36.7,27.5,29.86,South,180,3.0,3.0,69,0.00,,,0.00,meteohub,2013-03-11 02:08:00,
2013-03-10 22:13:00,36.7,27.5,29.86,South,180,7.0,7.0,69,0.00,,,0.00,meteohub,2013-03-11 02:13:00,
2013-03-10 22:18:00,36.9,27.7,29.86,South,180,3.0,4.0,69,0.00,,,0.00,meteohub,2013-03-11 02:18:00,
2013-03-10 22:23:00,37.0,27.9,29.86,South,180,5.0,7.0,69,0.00,,,0.00,meteohub,2013-03-11 02:23:00,
2013-03-10 22:28:00,37.2,28.0,29.86,SW,225,4.0,7.0,69,0.00,,,0.00,meteohub,2013-03-11 02:28:00,
2013-03-10 22:33:00,37.2,28.0,29.87,South,180,4.0,7.0,69,0.00,,,0.00,meteohub,2013-03-11 02:33:00,
2013-03-10 22:38:00,37.2,28.0,29.87,SW,225,4.0,7.0,69,0.00,,,0.00,meteohub,2013-03-11 02:38:00,
2013-03-10 22:43:00,37.2,28.0,29.87,South,180,3.0,7.0,69,0.00,,,0.00,meteohub,2013-03-11 02:43:00,
2013-03-10 22:49:00,37.2,28.4,29.87,SW,225,2.0,4.0,70,0.00,,,0.00,meteohub,2013-03-11 02:49:00,
2013-03-10 22:54:00,37.2,28.4,29.88,NW,315,4.0,5.0,70,0.00,,,0.00,meteohub,2013-03-11 02:54:00,
2013-03-10 22:59:00,37.2,28.4,29.87,South,180,4.0,5.0,70,0.00,,,0.00,meteohub,2013-03-11 02:59:00,
2013-03-10 23:04:00,37.2,28.4,29.87,WNW,293,2.0,6.0,70,0.00,,,0.00,meteohub,2013-03-11 03:04:00,
2013-03-10 23:09:00,37.0,28.2,29.87,South,180,2.0,6.0,70,0.00,,,0.00,meteohub,2013-03-11 03:09:00,
2013-03-10 23:14:00,37.0,28.2,29.86,South,180,2.0,6.0,70,0.00,,,0.00,meteohub,2013-03-11 03:14:00,
2013-03-10 23:19:00,36.9,28.4,29.86,SW,225,4.0,4.0,71,0.00,,,0.00,meteohub,2013-03-11 03:19:00,
2013-03-10 23:24:00,36.9,28.4,29.86,SW,225,7.0,7.0,71,0.00,,,0.00,meteohub,2013-03-11 03:24:00,
2013-03-10 23:29:00,36.9,28.4,29.86,SW,225,4.0,8.0,71,0.00,,,0.00,meteohub,2013-03-11 03:29:00,
2013-03-10 23:34:00,36.7,28.2,29.85,South,180,8.0,8.0,71,0.00,,,0.00,meteohub,2013-03-11 03:34:00,
2013-03-10 23:39:00,36.5,28.0,29.84,SW,225,3.0,9.0,71,0.00,,,0.00,meteohub,2013-03-11 03:39:00,
2013-03-10 23:44:00,36.3,27.9,29.85,NW,315,4.0,9.0,71,0.00,,,0.00,meteohub,2013-03-11 03:44:00,
2013-03-10 23:49:00,36.3,28.2,29.85,West,270,4.0,9.0,72,0.00,,,0.00,meteohub,2013-03-11 03:49:00,
2013-03-10 23:55:00,36.1,28.0,29.85,SW,225,6.0,7.0,72,0.00,,,0.00,meteohub,2013-03-11 03:55:00,